This demonstration page uses our WeatherBlox Daily Observations layout. Learn more.

Left ArrowRight Arrow

41.55636, -103.73856

Hourly Observations for February 16, 2020

Temp ( °F °C ) Dew Point ( °F °C ) Humidity (%) Winds ( mph kmh ) Pressure ( in mb ) Visibility ( mi km ) Precip ( " mm )
12:53 am 00:53 Clear 23 -5 18 -7.8 81 81 S 6 9 30.03 1017 10 16 N/A
1:53 am 01:53 Clear 25 -3.9 19 -7.2 78 78 NNW 3 6 30.01 1016 10 16 N/A
2:53 am 02:53 Clear 24 -4.4 19 -7.2 81 81 NNW 7 11 30.01 1016 10 16 N/A
3:53 am 03:53 Clear 25 -3.9 19 -7.2 78 78 WNW 3 6 29.99 1016 10 16 N/A
4:53 am 04:53 Clear 27 -2.8 21 -6.1 78 78 N 6 9 29.98 1015 10 16 N/A
5:53 am 05:53 Mostly Clear 25 -3.9 20 -6.7 81 81 S 6 9 29.99 1016 10 16 N/A
6:53 am 06:53 Mostly Cloudy 26 -3.3 22 -5.6 84 84 N N/A 29.96 1015 10 16 N/A
7:53 am 07:53 Cloudy 30 -1.1 24 -4.4 79 79 SSE 5 7 29.96 1015 10 16 N/A
8:53 am 08:53 Partly Cloudy 35 1.7 27 -2.8 72 72 SE 7 11 29.93 1013 10 16 N/A
9:53 am 09:53 Sunny 45 7.2 22 -5.6 40 40 SSW 18 30 29.87 1012 10 16 N/A
10:53 am 10:53 Sunny 48 8.9 23 -5 37 37 SW 18 30 29.85 1011 10 16 N/A
11:53 am 11:53 Partly Cloudy 49 9.4 25 -3.9 39 39 SW 15 24 29.82 1010 10 16 N/A
12:53 pm 12:53 Sunny 51 10.6 26 -3.3 38 38 W 26 43 29.79 1009 10 16 N/A
1:53 pm 13:53 Mostly Sunny 50 10 28 -2.2 43 43 W 20 31 29.77 1008 10 16 N/A
2:53 pm 14:53 Cloudy 49 9.4 29 -1.7 46 46 W 23 37 29.78 1009 10 16 N/A
3:53 pm 15:53 Cloudy 47 8.3 30 -1.1 52 52 W 16 26 29.80 1009 10 16 N/A
4:53 pm 16:53 Mostly Cloudy 46 7.8 30 -1.1 54 54 WNW 15 24 29.79 1009 10 16 N/A
5:53 pm 17:53 Cloudy 43 6.1 30 -1.1 60 60 WNW 8 13 29.82 1010 10 16 N/A
6:53 pm 18:53 Cloudy 42 5.6 30 -1.1 62 62 W 8 13 29.82 1010 10 16 N/A
7:53 pm 19:53 Cloudy 42 5.6 30 -1.1 62 62 W 8 13 29.81 1010 10 16 N/A
8:53 pm 20:53 Cloudy 44 6.7 31 -0.6 60 60 WNW 18 30 29.78 1009 10 16 N/A
9:53 pm 21:53 Mostly Cloudy 40 4.4 31 -0.6 70 70 NW 7 11 29.75 1008 10 16 0.00 0.00
10:53 pm 22:53 Clear 38 3.3 30 -1.1 73 73 WSW 5 7 29.75 1008 10 16 N/A
11:53 pm 23:53 Mostly Clear 34 1.1 29 -1.7 82 82 SW 5 7 29.75 1008 10 16 N/A

Powered by AerisWeather